Zurück zum Katalog

DELTA 1 DEB

AktivSSO
NORAD 12230·DEBRIS·🇺🇸 United States

Gestartet Mar 5, 1978 von Vandenberg Space Force Base

Loading…

Nächste Überflüge (nächste 24 Stunden)

TLE

AktuellSource: Space-Track

Epoche: Sep 13, 2026, 23:13 UTC

1 12230U 78026BX  26256.96746053  .00009594  00000-0  63541-3 0  9991
2 12230  98.0209 260.8628 0032870 133.8363 226.5589 15.07095057394380

Verfolge DELTA 1 DEB in Echtzeit mit AllMySat

Download on the App Store